Location: Unspecified
(0.0000°N, 0.0000°E)
Time: 01:26:35
(UTC+00:00)

Courier 1B - Pass Details

Date: 22 November 2019
Orbit: 963 x 1209 km, 28.3° (Epoch: 11 December)

Event Time Altitude Azimuth Distance (km) Brightness Sun altitude
Rises 20:44:33 0° 211° (SSW) 4,040 11.4 -41.2°
Reaches altitude 10° 20:49:35 10° 183° (S) 3,117 10.4 -42.3°
Enters shadow 20:51:22 12° 170° (S) 2,971 10.1 -42.7°
Maximum altitude 20:52:37 12° 160° (SSE) 2,943 - -43.0°
Drops below altitude 10° 20:55:40 10° 137° (SE) 3,141 - -43.7°
Sets 21:00:46 0° 109° (ESE) 4,106 - -44.8°
